Location: Unspecified
(42.0334°N, 93.6656°W)
Time: 13:25:54
(UTC-06:00)

Amateur Radio Satellites - All Passes

Search period start: 13 February 2016 12:55
Search period end: 14 February 2016 12:55
Location: Unspecified, 42.0334°N, 93.6656°W

Satellite Date Start Highest point End Downlink Frequencies (MHz)
Time Altitude Azimuth
DANDE 13 Feb 13:07:18 13:13:59 79° 263° (W) 13:18:54 436.750
YUBILEINY 13 Feb 13:08:28 13:16:27 36° 70° (ENE) 13:24:20 435.215
JAS-2 13 Feb 13:09:53 13:17:28 88° 252° (WSW) 13:24:21 435.910
AO-7 13 Feb 13:10:34 13:16:20 21° 50° (NE) 13:22:04 29.400- 29.500
Cosmos 2491 13 Feb 13:19:05 13:24:33 19° 77° (ENE) 13:30:00 435.465 / 435.565
ISS 13 Feb 13:24:23 13:25:51 13° 130° (SE) 13:27:19 145.825
VELOX 1 13 Feb 13:26:05 13:27:29 11° 300° (WNW) 13:28:54 145.980
TISAT 1 13 Feb 13:27:40 13:31:50 73° 284° (WNW) 13:35:58 437.305
Gurwin Techsat 1B 13 Feb 13:28:32 13:33:49 76° 75° (ENE) 13:39:09 435.225
SPROUT 13 Feb 13:34:41 13:38:05 24° 293° (WNW) 13:41:28 437.525
ITAMSAT 1 13 Feb 13:43:19 13:48:22 55° 71° (ENE) 13:53:28 435.822/435.867
CUSAT 1 13 Feb 13:44:47 13:47:54 16° 280° (W) 13:50:35 437.405
SWISSCUBE 13 Feb 13:45:37 13:49:57 33° 97° (E) 13:54:16 437.505
Oscar 19 13 Feb 14:06:44 14:10:24 19° 268° (W) 14:14:03 437.125/150
Cosmos 2504 13 Feb 14:06:57 14:12:25 18° 59° (ENE) 14:17:40 435.465 / 435.565
M-CUBED/EXP-1 PRIME 13 Feb 14:22:43 14:24:33 14° 61° (ENE) 14:26:21 437.505
ITUPSAT 1 13 Feb 14:24:17 14:29:08 72° 102° (ESE) 14:33:56 437.325
AUBIESAT-1 13 Feb 14:28:55 14:30:40 13° 61° (ENE) 14:32:23 437.475
BEESAT 13 Feb 14:30:04 14:34:53 84° 103° (ESE) 14:39:41 436.000
SO-50 13 Feb 14:30:52 14:33:09 13° 253° (WSW) 14:35:23 436.795
ISS 13 Feb 14:58:38 15:01:52 77° 327° (NNW) 15:05:07 145.825
JAS-2 13 Feb 14:58:46 15:03:07 16° 271° (W) 15:07:16 435.910
AO-7 13 Feb 14:59:33 15:07:56 84° 70° (ENE) 15:16:20 29.400- 29.500
KKS-1 13 Feb 15:04:28 15:08:12 26° 96° (E) 15:11:55 437.445
YUBILEINY 13 Feb 15:05:03 15:13:31 52° 271° (W) 15:21:54 435.215
RS-15 13 Feb 15:08:40 15:17:42 25° 349° (N) 15:27:04 29.354- 29.394
Cosmos 2491 13 Feb 15:11:25 15:20:08 88° 279° (W) 15:28:54 435.465 / 435.565
Gurwin Techsat 1B 13 Feb 15:11:46 15:14:20 14° 271° (W) 15:16:56 435.225
BEESAT 2 13 Feb 15:20:00 15:20:14 10° 108° (ESE) 15:20:29 435.950
SWISSCUBE 13 Feb 15:23:34 15:27:38 28° 293° (WNW) 15:31:41 437.505
ITAMSAT 1 13 Feb 15:24:39 15:28:11 18° 268° (W) 15:31:45 435.822/435.867
MOZHAYETS 4 13 Feb 15:27:50 15:31:16 20° 93° (E) 15:34:41
HORYU 2 13 Feb 15:29:43 15:33:59 50° 72° (ENE) 15:38:16 437.375
M-CUBED/EXP-1 PRIME 13 Feb 15:55:40 15:58:59 36° 255° (WSW) 16:02:08 437.505
Cosmos 2504 13 Feb 15:58:40 16:07:18 85° 83° (E) 16:15:15 435.465 / 435.565
AUBIESAT-1 13 Feb 16:01:41 16:05:00 37° 255° (WSW) 16:08:11 437.475
ITUPSAT 1 13 Feb 16:03:53 16:06:22 14° 300° (WNW) 16:08:52 437.325
Cubesat XI-IV 13 Feb 16:09:03 16:11:34 14° 58° (ENE) 16:14:05 437.490
BEESAT 13 Feb 16:10:08 16:11:59 12° 301° (WNW) 16:13:50 436.000
AO-85 13 Feb 16:11:47 16:13:36 12° 28° (NNE) 16:15:22 145.980
STARS 13 Feb 16:12:17 16:16:41 78° 103° (ESE) 16:21:02 437.465
BEESAT 3 13 Feb 16:21:45 16:25:42 80° 123° (ESE) 16:29:43 437.485
LilacSat-2 13 Feb 16:31:16 16:31:53 10° 63° (ENE) 16:32:30 437.200
ISS 13 Feb 16:36:15 16:38:44 20° 345° (NNW) 16:41:12 145.825
KKS-1 13 Feb 16:40:55 16:44:45 29° 292° (WNW) 16:48:35 437.445
BRITE-PL 13 Feb 16:48:15 16:51:48 17° 63° (ENE) 16:55:17 437.365/2234.400
BEESAT 2 13 Feb 16:53:31 16:57:31 73° 303° (WNW) 17:01:34 435.950
AO-7 13 Feb 16:55:45 17:01:36 21° 269° (W) 17:07:29 29.400- 29.500
O/OREOS (USA 219) 13 Feb 16:59:37 17:04:12 68° 66° (ENE) 17:08:47 437.305
MOZHAYETS 4 13 Feb 17:04:13 17:08:36 41° 289° (WNW) 17:12:57
HORYU 2 13 Feb 17:08:17 17:10:50 15° 268° (W) 17:13:25 437.375
Cosmos 2491 13 Feb 17:12:31 17:18:19 19° 299° (WNW) 17:24:08 435.465 / 435.565
PCSat 13 Feb 17:15:02 17:17:26 13° 36° (NE) 17:19:50 145.827
RS-15 13 Feb 17:25:24 17:35:32 30° 24° (NNE) 17:45:53 29.354- 29.394
CUTE-I 13 Feb 17:30:29 17:35:46 69° 73° (ENE) 17:41:06 437.470
GOMX 1 13 Feb 17:32:11 17:36:05 21° 66° (ENE) 17:39:51 467.674
AIST 2 13 Feb 17:44:00 17:47:51 38° 116° (ESE) 17:51:44 435.215
Cubesat XI-IV 13 Feb 17:45:31 17:50:51 88° 253° (WSW) 17:56:15 437.490
AO-85 13 Feb 17:50:29 17:55:31 47° 50° (NE) 18:00:07 145.980
STARS 13 Feb 17:51:09 17:52:25 11° 300° (WNW) 17:53:41 437.465
Cosmos 2504 13 Feb 17:53:58 17:59:24 19° 283° (WNW) 18:04:38 435.465 / 435.565
CUBESAT XI-V 13 Feb 17:56:09 18:00:52 73° 101° (E) 18:05:32 437.345
LilacSat-2 13 Feb 18:01:56 18:05:41 62° 259° (W) 18:09:28 437.200
BEESAT 3 13 Feb 18:01:58 18:04:00 13° 320° (NW) 18:06:02 437.485
ISS 13 Feb 18:14:01 18:16:04 15° 5° (N) 18:18:07 145.825
BRITE-PL 13 Feb 18:24:03 18:29:43 73° 258° (WSW) 18:35:11 437.365/2234.400
DOVE 4 13 Feb 18:29:11 18:33:43 36° 71° (ENE) 18:38:02 437.250
HO-68 13 Feb 18:33:14 18:39:29 34° 61° (ENE) 18:45:47 435.675
GONETS M04 13 Feb 18:34:30 18:42:00 30° 68° (ENE) 18:49:29
BEESAT 2 13 Feb 18:35:03 18:36:09 11° 323° (NW) 18:37:15 435.950
O/OREOS (USA 219) 13 Feb 18:41:16 18:42:59 12° 263° (W) 18:44:41 437.305
STRAND 1 13 Feb 18:41:28 18:45:48 27° 95° (E) 18:50:07 437.568
CANX-2 13 Feb 18:42:32 18:45:39 20° 66° (ENE) 18:48:47 2200.000
CINEMA 3 13 Feb 18:53:32 18:56:56 21° 67° (ENE) 19:00:15 145.822/145.860
Cosmos 2499 13 Feb 18:55:51 19:00:48 17° 59° (ENE) 19:05:32 435.465 / 435.565
PCSat 13 Feb 18:56:35 19:01:59 61° 57° (ENE) 19:07:20 145.827
GOMX 1 13 Feb 19:08:38 19:13:50 51° 260° (W) 19:18:47 467.674
COMPASS 1 13 Feb 19:09:16 19:12:17 20° 66° (ENE) 19:15:19 437.405
CUTE-I 13 Feb 19:13:17 19:16:19 15° 270° (W) 19:19:22 437.470
PRISM 13 Feb 19:15:46 19:18:16 15° 92° (E) 19:20:44 437.425
AIST 2 13 Feb 19:23:02 19:26:28 24° 314° (NW) 19:29:54 435.215
SEEDS 13 Feb 19:30:05 19:34:03 44° 72° (ENE) 19:38:03 437.485
Cubesat XI-IV 13 Feb 19:30:34 19:31:40 11° 272° (W) 19:32:47 437.490
CUTE 1.7 + AOD 2 13 Feb 19:31:10 19:35:18 61° 75° (ENE) 19:39:29 437.475
AO-85 13 Feb 19:31:44 19:35:40 23° 251° (WSW) 19:39:20 145.980
AAUSAT CUBESAT 2 13 Feb 19:33:06 19:36:40 29° 69° (ENE) 19:40:16 437.432
CUBESAT XI-V 13 Feb 19:35:28 19:37:38 13° 299° (WNW) 19:39:47 437.345
RS-15 13 Feb 19:38:27 19:50:38 72° 53° (NE) 20:02:58 29.354- 29.394
Oscar 11 13 Feb 19:41:40 19:44:21 16° 64° (ENE) 19:47:03 145.826/435.025
ISS 13 Feb 19:50:14 19:53:14 33° 26° (NNE) 19:56:13 145.825
UWE-3 13 Feb 19:59:29 20:03:00 26° 69° (ENE) 20:06:29 435.000/436.395/437.385
CUBEBUG 2 13 Feb 20:07:19 20:11:23 44° 73° (ENE) 20:15:23 437.445
DOVE 4 13 Feb 20:07:21 20:11:28 25° 265° (W) 20:15:24 437.250
AIST 1 13 Feb 20:11:15 20:13:27 14° 68° (ENE) 20:15:38
DELFI C3 13 Feb 20:13:52 20:16:34 18° 66° (ENE) 20:19:19 145.870
CANX-2 13 Feb 20:17:26 20:21:17 35° 263° (W) 20:25:11 2200.000
HO-68 13 Feb 20:20:01 20:26:56 50° 260° (W) 20:33:55 435.675
STRAND 1 13 Feb 20:20:17 20:25:03 38° 292° (WNW) 20:29:47 437.568
HUMSAT D 13 Feb 20:27:35 20:28:43 11° 62° (ENE) 20:29:51 437.325/437.525
CINEMA 3 13 Feb 20:29:41 20:33:53 36° 262° (W) 20:37:57 145.822/145.860
GONETS M04 13 Feb 20:30:45 20:39:23 63° 268° (W) 20:48:03
PCSat 13 Feb 20:41:08 20:44:51 19° 255° (WSW) 20:48:35 145.827
ZACube-1 13 Feb 20:42:58 20:47:03 55° 74° (ENE) 20:51:07 437.345
COMPASS 1 13 Feb 20:43:48 20:47:37 35° 263° (W) 20:51:29 437.405
Cosmos 2499 13 Feb 20:47:07 20:55:29 82° 82° (E) 21:03:08 435.465 / 435.565
FUNcube-1 13 Feb 20:49:41 20:53:48 63° 75° (ENE) 20:57:54 145.935
PRISM 13 Feb 20:49:50 20:53:50 44° 288° (WNW) 20:57:46 437.425
SEEDS 13 Feb 21:07:27 21:10:00 16° 269° (W) 21:12:33 437.485
AAUSAT CUBESAT 2 13 Feb 21:08:49 21:12:10 23° 266° (W) 21:15:33 437.432
CUTE 1.7 + AOD 2 13 Feb 21:10:07 21:11:33 11° 271° (W) 21:12:59 437.475
Oscar 11 13 Feb 21:15:57 21:20:06 47° 261° (W) 21:24:17 145.826/435.025
UNISAT 6 13 Feb 21:26:26 21:27:19 10° 90° (E) 21:28:13 437.425
ISS 13 Feb 21:26:42 21:29:40 33° 223° (SW) 21:32:36 145.825
AISAT 13 Feb 21:28:48 21:30:41 12° 61° (ENE) 21:32:33 437.250
UWE-3 13 Feb 21:35:54 21:39:25 26° 265° (W) 21:42:56 435.000/436.395/437.385
CUBEBUG 1 13 Feb 21:36:03 21:37:34 12° 61° (ENE) 21:39:05 437.445
DX 1 13 Feb 21:36:27 21:38:58 15° 63° (ENE) 21:41:30 434.975-435.025
CUBEBUG 2 13 Feb 21:45:42 21:48:15 15° 268° (W) 21:50:46 437.445
AIST 1 13 Feb 21:47:12 21:51:26 53° 266° (W) 21:55:36
DELFI C3 13 Feb 21:47:32 21:51:13 36° 263° (W) 21:54:57 145.870
RS-15 13 Feb 21:51:46 22:02:16 36° 255° (WSW) 22:12:52 29.354- 29.394
HUMSAT D 13 Feb 21:59:45 22:03:48 67° 259° (W) 22:07:53 437.325/437.525
ESTCUBE 1 13 Feb 22:05:49 22:09:48 31° 69° (ENE) 22:13:49 437.505/2401.250
ANTELSAT 13 Feb 22:08:46 22:12:41 31° 97° (E) 22:16:40 437.575/2403.000
PHONESAT 2.4 13 Feb 22:12:56 22:13:52 11° 147° (SSE) 22:14:48 2401.200-2431.200
TIGRISAT 13 Feb 22:14:02 22:18:02 34° 97° (E) 22:22:05 435.000
ZACube-1 13 Feb 22:22:03 22:23:42 12° 270° (W) 22:25:21 437.345
QB50P2 13 Feb 22:23:49 22:24:18 10° 89° (E) 22:24:47 145.880/145.840
FUNcube-1 13 Feb 22:29:40 22:30:28 10° 271° (W) 22:31:17 145.935
GONETS M04 13 Feb 22:32:42 22:34:17 11° 289° (WNW) 22:35:52
50 SAT 13 Feb 22:41:22 22:45:03 81° 77° (ENE) 22:48:48 437.505
Cosmos 2499 13 Feb 22:42:06 22:47:23 19° 283° (WNW) 22:52:27 435.465 / 435.565
VELOX 1 13 Feb 22:44:37 22:49:04 71° 74° (ENE) 22:53:30 145.980
POPSAT HIP 1 13 Feb 22:50:03 22:53:10 20° 94° (E) 22:56:17 437.405
UKube-1 13 Feb 22:50:18 22:54:37 76° 75° (ENE) 22:58:58 .
DUCHIFAT 1 13 Feb 22:51:22 22:54:24 19° 94° (E) 22:57:25 145.980
NANOSAT C BR1 13 Feb 22:51:53 22:55:02 20° 94° (E) 22:58:11 145.865
SPROUT 13 Feb 22:52:46 22:56:18 26° 68° (ENE) 22:59:51 437.525
UNISAT 6 13 Feb 23:00:07 23:04:29 72° 286° (WNW) 23:08:56 437.425
QB50P1 13 Feb 23:01:53 23:05:30 27° 96° (E) 23:09:05 145.935-145.965
AISAT 13 Feb 23:02:07 23:06:35 72° 258° (WSW) 23:11:03 437.250
CUBEBUG 1 13 Feb 23:08:48 23:13:14 76° 257° (WSW) 23:17:41 437.445
DX 1 13 Feb 23:10:25 23:14:43 55° 259° (W) 23:19:02 434.975-435.025
CUSAT 1 13 Feb 23:25:12 23:27:45 12° 78° (ENE) 23:30:16 437.405
BUGSAT 1 13 Feb 23:33:29 23:37:00 28° 97° (E) 23:40:28 437.445
BEESAT 2 13 Feb 23:35:53 23:36:54 11° 37° (NE) 23:37:53 435.950
ESTCUBE 1 13 Feb 23:42:50 23:46:36 26° 265° (W) 23:50:25 437.505/2401.250
ANTELSAT 13 Feb 23:45:44 23:49:17 25° 292° (WNW) 23:52:53 437.575/2403.000
PHONESAT 2.4 13 Feb 23:47:29 23:50:34 38° 162° (SSE) 23:53:39 2401.200-2431.200
TIGRISAT 13 Feb 23:51:08 23:54:33 23° 293° (WNW) 23:58:01 435.000
POLYITAN 1 13 Feb 23:55:56 00:00:09 71° 285° (WNW) 00:04:20 437.675
QB50P2 13 Feb 23:56:22 00:00:34 68° 285° (WNW) 00:04:45 145.880/145.840
ITUPSAT 1 13 Feb 23:57:58 23:58:59 11° 58° (ENE) 00:00:01 437.325
BEESAT 14 Feb 00:02:30 00:04:21 12° 59° (ENE) 00:06:13 436.000
TISAT 1 14 Feb 00:19:23 00:23:37 86° 74° (ENE) 00:27:51 437.305
VELOX 1 14 Feb 00:24:49 00:26:00 11° 271° (W) 00:27:11 145.980
POPSAT HIP 1 14 Feb 00:25:15 00:29:03 34° 290° (WNW) 00:32:51 437.405
DUCHIFAT 1 14 Feb 00:26:24 00:30:13 35° 290° (WNW) 00:34:02 145.980
NANOSAT C BR1 14 Feb 00:27:05 00:30:51 33° 290° (WNW) 00:34:38 145.865
SPROUT 14 Feb 00:28:28 00:32:11 28° 264° (W) 00:35:55 437.525
DANDE 14 Feb 00:31:54 00:38:09 25° 83° (E) 00:44:36 436.750
QB50P1 14 Feb 00:37:44 00:41:12 25° 292° (WNW) 00:44:40 145.935-145.965
Oscar 19 14 Feb 00:37:58 00:41:21 17° 92° (E) 00:44:43 437.125/150
BEESAT 3 14 Feb 00:39:04 00:42:57 51° 53° (NE) 00:46:48 437.485
SWISSCUBE 14 Feb 00:52:24 00:56:49 39° 70° (ENE) 01:01:16 437.505
CUSAT 1 14 Feb 01:00:45 01:08:41 62° 94° (E) 01:16:21 437.405
BUGSAT 1 14 Feb 01:09:05 01:12:15 23° 293° (WNW) 01:15:24 437.445
BEESAT 2 14 Feb 01:11:31 01:15:31 74° 56° (ENE) 01:19:28 435.950
Cosmos 2491 14 Feb 01:21:22 01:29:47 48° 74° (ENE) 01:38:10 435.465 / 435.565
PHONESAT 2.4 14 Feb 01:24:22 01:27:38 68° 179° (S) 01:30:54 2401.200-2431.200
ITUPSAT 1 14 Feb 01:31:16 01:36:02 86° 78° (ENE) 01:40:52 437.325
BEESAT 14 Feb 01:36:42 01:41:27 83° 256° (WSW) 01:46:16 436.000
Gurwin Techsat 1B 14 Feb 01:44:46 01:49:22 29° 95° (E) 01:53:56 435.225
ITAMSAT 1 14 Feb 01:56:40 02:00:20 19° 92° (E) 02:03:59 435.822/435.867
KKS-1 14 Feb 02:03:00 02:06:43 26° 67° (ENE) 02:10:25 437.445
JAS-2 14 Feb 02:04:59 02:10:32 79° 103° (ESE) 02:15:43 435.910
AIST 2 14 Feb 02:05:00 02:08:40 30° 48° (NE) 02:12:19 435.215
YUBILEINY 14 Feb 02:10:00 02:17:56 40° 86° (E) 02:25:55 435.215
DANDE 14 Feb 02:12:12 02:20:18 77° 281° (WNW) 02:28:47 436.750
Oscar 19 14 Feb 02:16:01 02:21:02 56° 288° (WNW) 02:26:01 437.125/150
BEESAT 3 14 Feb 02:18:11 02:20:16 14° 250° (WSW) 02:22:21 437.485
MOZHAYETS 4 14 Feb 02:30:24 02:33:45 21° 65° (ENE) 02:37:08
SWISSCUBE 14 Feb 02:31:02 02:34:44 22° 266° (W) 02:38:29 437.505
CUSAT 1 14 Feb 02:44:16 02:51:20 32° 291° (WNW) 02:58:06 437.405
Cosmos 2504 14 Feb 02:48:25 02:52:22 14° 73° (ENE) 02:56:22 435.465 / 435.565
PHONESAT 2.4 14 Feb 03:01:35 03:04:43 42° 196° (SSW) 03:07:50 2401.200-2431.200
AO-7 14 Feb 03:01:38 03:08:23 27° 94° (E) 03:15:04 29.400- 29.500
SO-50 14 Feb 03:03:43 03:07:28 22° 111° (ESE) 03:11:17 436.795
STARS 14 Feb 03:09:04 03:13:26 71° 75° (ENE) 03:17:50 437.465
Cosmos 2491 14 Feb 03:18:34 03:26:23 38° 274° (W) 03:34:14 435.465 / 435.565
Gurwin Techsat 1B 14 Feb 03:24:29 03:29:21 37° 292° (WNW) 03:34:11 435.225
ITAMSAT 1 14 Feb 03:35:01 03:40:08 54° 289° (WNW) 03:45:13 435.822/435.867
KKS-1 14 Feb 03:39:15 03:43:10 30° 263° (W) 03:47:06 437.445
AIST 2 14 Feb 03:43:34 03:47:06 28° 246° (WSW) 03:50:36 435.215
JAS-2 14 Feb 03:52:01 03:54:48 14° 303° (WNW) 03:57:31 435.910
DANDE 14 Feb 03:59:05 04:04:36 19° 301° (WNW) 04:10:10 436.750
YUBILEINY 14 Feb 04:06:13 04:14:34 46° 286° (WNW) 04:23:01 435.215
MOZHAYETS 4 14 Feb 04:06:19 04:10:38 41° 262° (W) 04:15:00
Cosmos 2504 14 Feb 04:35:27 04:44:04 72° 93° (E) 04:52:56 435.465 / 435.565
PHONESAT 2.4 14 Feb 04:39:54 04:41:27 13° 211° (SSW) 04:43:02 2401.200-2431.200
SO-50 14 Feb 04:42:53 04:47:39 50° 309° (NW) 04:52:29 436.795
STARS 14 Feb 04:49:24 04:50:17 11° 270° (W) 04:51:11 437.465
AO-7 14 Feb 04:53:29 05:01:45 69° 293° (WNW) 05:09:56 29.400- 29.500
HORYU 2 14 Feb 04:56:27 05:00:55 84° 287° (WNW) 05:05:24 437.375
CUBESAT XI-V 14 Feb 04:59:29 05:04:09 73° 76° (ENE) 05:08:53 437.345
M-CUBED/EXP-1 PRIME 14 Feb 05:08:24 05:11:49 58° 291° (WNW) 05:15:27 437.505
AUBIESAT-1 14 Feb 05:13:51 05:17:20 61° 291° (WNW) 05:21:03 437.475
LilacSat-2 14 Feb 05:36:28 05:38:22 13° 92° (E) 05:40:14 437.200
CUTE-I 14 Feb 05:47:38 05:52:08 26° 94° (E) 05:56:36 437.470
STRAND 1 14 Feb 05:57:34 06:02:19 40° 69° (ENE) 06:07:05 437.568
Cubesat XI-IV 14 Feb 06:02:36 06:07:33 36° 97° (E) 06:12:28 437.490
PRISM 14 Feb 06:06:36 06:08:34 13° 62° (ENE) 06:10:31 437.425
SO-50 14 Feb 06:27:50 06:29:21 11° 329° (NNW) 06:30:51 436.795
BRITE-PL 14 Feb 06:29:40 06:33:50 33° 96° (E) 06:37:43 437.365/2234.400
Cosmos 2504 14 Feb 06:31:08 06:38:15 27° 294° (WNW) 06:45:32 435.465 / 435.565
CUBESAT XI-V 14 Feb 06:40:27 06:42:03 12° 271° (W) 06:43:41 437.345
AO-7 14 Feb 06:48:17 06:53:02 17° 314° (NW) 06:57:46 29.400- 29.500
LilacSat-2 14 Feb 07:09:18 07:12:54 41° 287° (WNW) 07:16:29 437.200
GOMX 1 14 Feb 07:10:35 07:14:43 43° 98° (E) 07:18:42 467.674
O/OREOS (USA 219) 14 Feb 07:12:06 07:16:33 75° 112° (ESE) 07:21:05 437.305
CUTE 1.7 + AOD 2 14 Feb 07:18:38 07:19:18 10° 89° (E) 07:19:57 437.475
CUTE-I 14 Feb 07:27:16 07:32:18 41° 291° (WNW) 07:37:18 437.470
Cosmos 2499 14 Feb 07:35:44 07:39:14 13° 73° (ENE) 07:42:43 435.465 / 435.565
GONETS M04 14 Feb 07:36:45 07:44:08 33° 84° (E) 07:51:33
STRAND 1 14 Feb 07:37:26 07:41:36 25° 266° (W) 07:45:48 437.568
PRISM 14 Feb 07:39:17 07:43:24 59° 259° (W) 07:47:33 437.425
Cubesat XI-IV 14 Feb 07:42:50 07:47:30 31° 294° (WNW) 07:52:09 437.490
HO-68 14 Feb 07:47:18 07:53:39 32° 96° (E) 07:59:56 435.675
CANX-2 14 Feb 08:01:45 08:05:45 36° 97° (E) 08:09:43 2200.000
DOVE 4 14 Feb 08:05:01 08:09:14 89° 117° (ESE) 08:13:21 437.250
AO-85 14 Feb 08:06:27 08:09:41 16° 107° (ESE) 08:12:59 145.980
BRITE-PL 14 Feb 08:08:32 08:12:07 23° 295° (WNW) 08:15:33 437.365/2234.400
CINEMA 3 14 Feb 08:23:27 08:27:27 45° 99° (E) 08:31:31 145.822/145.860
COMPASS 1 14 Feb 08:26:08 08:29:58 33° 96° (E) 08:33:48 437.405
UNISAT 6 14 Feb 08:26:44 08:27:29 10° 61° (ENE) 08:28:14 437.425
ZACube-1 14 Feb 08:33:42 08:34:11 10° 89° (E) 08:34:41 437.345
FUNcube-1 14 Feb 08:39:13 08:40:42 12° 90° (E) 08:42:12 145.935
SEEDS 14 Feb 08:48:54 08:53:12 83° 101° (E) 08:57:28 437.485
GOMX 1 14 Feb 08:49:43 08:52:27 17° 296° (WNW) 08:55:08 467.674
AAUSAT CUBESAT 2 14 Feb 08:49:50 08:53:57 50° 99° (E) 08:58:02 437.432
CUTE 1.7 + AOD 2 14 Feb 08:51:19 08:55:37 70° 284° (WNW) 08:59:52 437.475
O/OREOS (USA 219) 14 Feb 08:54:20 08:56:32 13° 309° (NW) 08:58:46 437.305
Oscar 11 14 Feb 09:02:52 09:06:40 29° 96° (E) 09:10:27 145.826/435.025
ANTELSAT 14 Feb 09:08:21 09:12:01 28° 69° (ENE) 09:15:41 437.575/2403.000
TIGRISAT 14 Feb 09:13:24 09:17:09 31° 69° (ENE) 09:20:54 435.000
Cosmos 2499 14 Feb 09:21:57 09:30:37 68° 93° (E) 09:39:25 435.465 / 435.565
UWE-3 14 Feb 09:23:55 09:28:06 55° 100° (E) 09:32:22 435.000/436.395/437.385
DELFI C3 14 Feb 09:25:11 09:28:38 26° 95° (E) 09:32:04 145.870
GONETS M04 14 Feb 09:32:01 09:40:29 55° 284° (WNW) 09:49:03
CUBEBUG 2 14 Feb 09:33:41 09:37:56 82° 284° (WNW) 09:42:15 437.445
HO-68 14 Feb 09:34:40 09:41:33 50° 294° (WNW) 09:48:24 435.675
CANX-2 14 Feb 09:38:11 09:41:22 20° 294° (WNW) 09:44:32 2200.000
PCSat 14 Feb 09:38:30 09:43:43 52° 114° (ESE) 09:48:58 145.827
HUMSAT D 14 Feb 09:43:34 09:46:32 18° 93° (E) 09:49:30 437.325/437.525
POPSAT HIP 1 14 Feb 09:43:35 09:46:19 17° 65° (ENE) 09:49:04 437.405
AO-85 14 Feb 09:44:11 09:49:34 77° 304° (NW) 09:55:06 145.980
DUCHIFAT 1 14 Feb 09:44:25 09:47:01 16° 64° (ENE) 09:49:37 145.980
NANOSAT C BR1 14 Feb 09:45:04 09:47:50 17° 65° (ENE) 09:50:36 145.865
QB50P1 14 Feb 09:55:05 09:58:23 23° 67° (ENE) 10:01:41 145.935-145.965
UNISAT 6 14 Feb 09:59:18 10:03:35 78° 258° (WSW) 10:07:52 437.425
CINEMA 3 14 Feb 10:01:46 10:04:17 16° 295° (WNW) 10:06:47 145.822/145.860
COMPASS 1 14 Feb 10:02:07 10:05:22 22° 293° (WNW) 10:08:36 437.405
RS-15 14 Feb 10:03:03 10:13:06 42° 107° (ESE) 10:23:36 29.354- 29.394
ZACube-1 14 Feb 10:06:40 10:10:54 70° 286° (WNW) 10:15:14 437.345
FUNcube-1 14 Feb 10:13:07 10:17:19 62° 286° (WNW) 10:21:36 145.935
AIST 1 14 Feb 10:16:18 10:20:42 87° 97° (E) 10:25:08
BUGSAT 1 14 Feb 10:23:53 10:27:09 23° 67° (ENE) 10:30:24 437.445
AAUSAT CUBESAT 2 14 Feb 10:26:37 10:29:03 15° 296° (WNW) 10:31:27 437.432
VELOX 1 14 Feb 10:36:19 10:38:18 13° 90° (E) 10:40:17 145.980
Oscar 11 14 Feb 10:39:05 10:42:42 26° 292° (WNW) 10:46:18 145.826/435.025
UKube-1 14 Feb 10:39:12 10:40:52 12° 91° (E) 10:42:30 .
ANTELSAT 14 Feb 10:45:12 10:48:44 25° 265° (W) 10:52:15 437.575/2403.000
POLYITAN 1 14 Feb 10:48:40 10:52:54 89° 73° (ENE) 10:57:08 437.675
QB50P2 14 Feb 10:49:03 10:53:16 88° 249° (WSW) 10:57:32 145.880/145.840
TIGRISAT 14 Feb 10:50:29 10:53:53 23° 265° (W) 10:57:16 435.000
AISAT 14 Feb 10:52:49 10:56:07 20° 94° (E) 10:59:24 437.250
CUBEBUG 1 14 Feb 10:58:01 11:01:07 19° 93° (E) 11:04:12 437.445
DX 1 14 Feb 10:58:41 11:02:13 24° 95° (E) 11:05:43 434.975-435.025
DELFI C3 14 Feb 11:00:09 11:03:27 24° 292° (WNW) 11:06:44 145.870
UWE-3 14 Feb 11:01:56 11:04:09 14° 296° (WNW) 11:06:25 435.000/436.395/437.385
DANDE 14 Feb 11:13:54 11:17:19 15° 55° (NE) 11:20:20 436.750
Cosmos 2499 14 Feb 11:17:03 11:24:26 29° 293° (WNW) 11:31:52 435.465 / 435.565
POPSAT HIP 1 14 Feb 11:17:45 11:21:47 43° 261° (W) 11:25:50 437.405
DUCHIFAT 1 14 Feb 11:18:19 11:22:22 46° 261° (W) 11:26:25 145.980
HUMSAT D 14 Feb 11:18:25 11:22:18 37° 289° (WNW) 11:26:12 437.325/437.525
NANOSAT C BR1 14 Feb 11:19:14 11:23:15 43° 261° (W) 11:27:17 145.865
PCSat 14 Feb 11:22:52 11:27:23 26° 313° (NW) 11:31:57 145.827
HO-68 14 Feb 11:27:05 11:27:35 10° 314° (NW) 11:28:06 435.675
AO-85 14 Feb 11:27:27 11:31:02 17° 324° (NW) 11:34:37 145.980
QB50P1 14 Feb 11:30:13 11:34:01 31° 263° (W) 11:37:48 145.935-145.965
ESTCUBE 1 14 Feb 11:33:58 11:38:30 64° 102° (ESE) 11:42:59 437.505/2401.250
SO-50 14 Feb 11:34:04 11:38:06 25° 43° (NE) 11:42:02 436.795
GONETS M04 14 Feb 11:38:14 11:39:40 10° 308° (NW) 11:41:07
CUSAT 1 14 Feb 11:39:37 11:44:25 33° 68° (ENE) 11:48:09 437.405
50 SAT 14 Feb 11:46:10 11:49:59 78° 284° (WNW) 11:53:47 437.505
Oscar 19 14 Feb 11:54:52 11:59:13 28° 66° (ENE) 12:03:34 437.125/150
BUGSAT 1 14 Feb 11:58:40 12:02:23 31° 263° (W) 12:06:05 437.445
TISAT 1 14 Feb 12:04:55 12:06:43 12° 91° (E) 12:08:31 437.305
VELOX 1 14 Feb 12:10:49 12:15:10 59° 287° (WNW) 12:19:29 145.980
UKube-1 14 Feb 12:13:03 12:17:19 61° 287° (WNW) 12:21:34 .
SPROUT 14 Feb 12:13:34 12:17:40 45° 99° (E) 12:21:44 437.525
RS-15 14 Feb 12:13:58 12:25:01 61° 311° (NW) 12:36:46 29.354- 29.394
JAS-2 14 Feb 12:15:52 12:22:42 41° 68° (ENE) 12:28:54 435.910
YUBILEINY 14 Feb 12:19:56 12:26:05 20° 62° (ENE) 12:32:10 435.215
AISAT 14 Feb 12:28:41 12:32:44 37° 290° (WNW) 12:36:45 437.250
CUBEBUG 1 14 Feb 12:33:30 12:37:34 39° 289° (WNW) 12:41:35 437.445
DX 1 14 Feb 12:34:35 12:38:25 31° 292° (WNW) 12:42:15 434.975-435.025
